Regional Weather Roundup
Issued by NWS

Home | Current Version | Previous Version | Graphics & Text | Print | Product List | Glossary Off
Versions: 1 2 3 4 5 6 7 8 9 10 11 12 13 14 15 16 17 18 19 20 21 22 23 24 25 26 27 28 29 30 31 32 33 34 35 36 37 38 39 40 41 42 43 44 45 46 47 48 49 50

000
ASUS43 KTOP 241659
RWRKS

WEATHER ROUNDUP FOR KANSAS
NATIONAL WEATHER SERVICE GOODLAND KS
1200 PM CDT MON APR 24 2017

NOTE:  "FAIR" INDICATES FEW OR NO CLOUDS BELOW 12,000 FEET WITH NO
SIGNIFICANT WEATHER AND/OR OBSTRUCTIONS TO VISIBILITY.

KSZ001>006-013>018-027>032-041>047-241800-
NORTHWEST KANSAS

CITY           SKY/WX    TMP DP  RH WIND       PRES   REMARKS
GOODLAND       SUNNY     69  41  36 NW23G29   29.63R
HAYS           CLOUDY    69  43  38 S25G33    29.54F
HILL CITY      MOSUNNY   70  43  37 NW9       29.55
RUSSELL        CLOUDY    69  42  37 S31G38    29.56F
$$

KSZ061>065-074>080-084>089-241800-
SOUTHWEST KANSAS

CITY           SKY/WX    TMP DP  RH WIND       PRES   REMARKS
DODGE CITY     PTSUNNY   70  41  34 SW22      29.62R
ELKHART          N/A    N/A N/A N/A VRB3        N/A
GARDEN CITY    MOSUNNY   74  42  31 N17G23    29.61S
$$

KSZ066>073-081>083-090>101-241800-
SOUTHEAST KANSAS

CITY           SKY/WX    TMP DP  RH WIND       PRES   REMARKS
CHANUTE        SUNNY     68  42  38 S25G32    29.83F
COFFEYVILLE    SUNNY     69  40  34 S21G30    29.85F
HUTCHINSON     SUNNY     68  44  42 S33G41    29.66F
MEDICINE LODGE   N/A     68  42  38 S20G31    29.68F
NEWTON         SUNNY     65  45  48 S30G39    29.68F
PARSONS        SUNNY     68  40  35 S17G30    29.85F
WICHITA INTL   MOSUNNY   68  46  45 S28G38    29.69F
WICHITA JABRA  SUNNY     66  44  45 S25G40    29.69F
WICHITA MCCONL SUNNY     67  42  40 S30G38    29.71F
WINFIELD       MOSUNNY   66  44  45 S25G33    29.78F
$$

KSZ007>012-019>026-033>040-048>060-102>105-241800-
NORTHEAST KANSAS

CITY           SKY/WX    TMP DP  RH WIND       PRES   REMARKS
CONCORDIA      SUNNY     66  43  43 S31G43    29.60F
EMPORIA        SUNNY     67  42  40 S24G37    29.74F
LAWRENCE       SUNNY     70  39  32 S23G31    29.78F
MANHATTAN      SUNNY     70  42  36 S23G37    29.69F
OLATHE IND     SUNNY     69  38  32 S20G30    29.81F
OLATHE EXE     CLOUDY    67  37  33 S21G32    29.81F
SALINA         SUNNY     70  44  39 S37G49    29.61F
TOPEKA BILLARD SUNNY     70  38  31 S24G37    29.74F
TOPEKA FORBES  LGT RAIN  70  40  33 S21G35    29.72F
$$




USA.gov is the U.S. government's official web portal to all federal, state and local government web resources and services.